Weather History for Kingston, Jamaica

Change the Weather History Date:

Monday, December 19, 2011

  Actual Average Record
Temperature  
Mean Temperature 80 °F -  
Max Temperature 88 °F 84 °F 90 °F (2012)
Min Temperature 72 °F 74 °F 70 °F (2012)
Cooling Degree Days 15    
Growing Degree Days 30 (Base 50)    
Moisture  
Dew Point 68 °F    
Average Humidity 64    
Maximum Humidity 83    
Minimum Humidity 44    
Precipitation  
Precipitation 0.00 in - - ()
Sea Level Pressure  
Sea Level Pressure 29.97 in    
Wind  
Wind Speed 5 mph ()    
Max Wind Speed 15 mph    
Max Gust Speed -    
Visibility 5.8 miles    
Events      
Averages and records for this station are not official NWS values.
T = Trace of Precipitation, MM = Missing Value Source: Averaged Metar Reports

Daily Weather History Graph

Daily Weather History Graph

Search for Another Location

Airport:

Trip Planner

Search our weather history database for the weather conditions in past years. The results will help you decide how hot, cold, wet, or windy it might be!

Date:

Astronomy

Dec. 19, 2011 Rise Set
Actual Time 6:32 AM EST 5:35 PM EST
Civil Twilight 6:08 AM EST 5:59 PM EST
Nautical Twilight 5:41 AM EST 6:26 PM EST
Astronomical Twilight 5:14 AM EST 6:53 PM EST
Moon 1:11 AM EST (12/19) 1:07 PM EST (12/19)
Length of Visible Light 11h 50m
Length of Day
11h 03m
Waning Crescent, 31% of the Moon is Illuminated
Dec 19
Waning Crescent
Dec 24
New
Jan 1
First Quarter
Jan 9
Full
Jan 16
Last Quarter

Hourly Weather History & Observations

Time (EST) Temp. Heat Index Dew Point Humidity Pressure Visibility Wind Dir Wind Speed Gust Speed Precip Events Conditions
12:00 AM 78.8 °F - 69.8 °F 74% 29.98 in 6.2 mi ESE 4.6 mph - N/A   Scattered Clouds
1:00 AM 77 °F - 67 °F 65% 29.99 in 4 mi ESE 3.5 mph - -   Scattered Clouds
1:00 AM 77.0 °F - 68.0 °F 74% 29.98 in 6.2 mi ESE 3.5 mph - N/A   Partly Cloudy
2:00 AM 77.0 °F - 66.2 °F 69% 29.95 in 6.2 mi NNW 4.6 mph - N/A   Partly Cloudy
3:00 AM 77.0 °F - 68.0 °F 74% 29.95 in 6.2 mi North 2.3 mph - N/A   Scattered Clouds
4:00 AM 77 °F - 67 °F 65% 29.95 in 11 mi West 2.3 mph - -   Scattered Clouds
4:00 AM 77.0 °F - 68.0 °F 74% 29.95 in 6.2 mi West 2.3 mph - N/A   Scattered Clouds
5:00 AM 75.2 °F - 69.8 °F 83% 29.95 in 6.2 mi NW 5.8 mph - N/A   Scattered Clouds
6:00 AM 77.0 °F - 68.0 °F 74% 29.95 in 6.2 mi NW 3.5 mph - N/A   Mostly Cloudy
7:00 AM 76 °F - 66 °F 64% 29.99 in 4 mi NNE 5.8 mph - -   Haze
7:00 AM 77.0 °F - 66.2 °F 69% 29.98 in 6.2 mi NNE 5.8 mph - N/A   Scattered Clouds
8:00 AM 80.6 °F 82.7 °F 66.2 °F 61% 30.01 in 6.2 mi NNW 1.2 mph - N/A   Partly Cloudy
9:00 AM 80.6 °F 83.2 °F 68.0 °F 65% 30.01 in 6.2 mi WNW 4.6 mph - N/A   Partly Cloudy
10:00 AM 82 °F - 68 °F 54% 30.03 in 3 mi WNW 5.8 mph - -   Haze
10:00 AM 82.4 °F 85.4 °F 68.0 °F 62% 30.01 in 6.2 mi WNW 5.8 mph - N/A   Partly Cloudy
11:00 AM - - - N/A% - - North - - N/A   Unknown
12:00 PM 86.0 °F 89.4 °F 68.0 °F 55% 29.98 in 6.2 mi WSW 8.1 mph - N/A   Partly Cloudy
1:00 PM 88 °F - 69 °F 44% 29.96 in 4 mi SSW 8.1 mph - -   Haze
1:00 PM 87.8 °F 92.6 °F 69.8 °F 55% 29.95 in 6.2 mi SSW 8.1 mph - N/A   Partly Cloudy
2:00 PM 86.0 °F 90.4 °F 69.8 °F 58% 29.92 in 6.2 mi South 6.9 mph - N/A   Scattered Clouds
3:00 PM 84.2 °F 88.4 °F 69.8 °F 62% 29.92 in 6.2 mi ESE 12.7 mph - N/A   Partly Cloudy
4:00 PM 85 °F - 69 °F 49% 29.93 in 4 mi ESE 3.5 mph - -   Haze
4:00 PM 84.2 °F 88.4 °F 69.8 °F 62% 29.92 in 6.2 mi ESE 15.0 mph - N/A   Partly Cloudy
5:00 PM 82.4 °F 86.3 °F 69.8 °F 66% 29.92 in 6.2 mi ESE 12.7 mph - N/A   Mostly Cloudy
6:00 PM 82.4 °F 84.6 °F 66.2 °F 58% 29.95 in 6.2 mi NNW 8.1 mph - N/A   Mostly Cloudy
7:00 PM 82 °F - 69 °F 56% 29.98 in 3 mi West 5.8 mph - -   Partly Cloudy
7:00 PM 82.4 °F 86.3 °F 69.8 °F 66% 29.98 in 6.2 mi West 5.8 mph - N/A   Mostly Cloudy
8:00 PM 80.6 °F 83.2 °F 68.0 °F 65% 29.98 in 6.2 mi West 6.9 mph - N/A   Mostly Cloudy
9:00 PM 80.6 °F 83.2 °F 68.0 °F 65% 30.01 in 6.2 mi SW 5.8 mph - N/A   Mostly Cloudy
10:00 PM 80 °F - 68 °F 59% 30.02 in 4 mi WNW 5.8 mph - -   Partly Cloudy
10:00 PM 80.6 °F 83.2 °F 68.0 °F 65% 30.01 in 6.2 mi WNW 5.8 mph - N/A   Mostly Cloudy
11:00 PM 78.8 °F - 66.2 °F 65% 30.01 in 6.2 mi North 2.3 mph - N/A   Mostly Cloudy